Time,TemperatureF,DewpointF,PressureIn,WindDirection,WindDirectionDegrees,WindSpeedMPH,WindSpeedGustMPH,Humidity,HourlyPrecipIn,Conditions,Clouds,dailyrainin,SoftwareType,DateUTC
2013-03-02 00:00:00,26.6,21.8,29.91,NNW,342,1.0,1.0,82,0.00,,,0.00,Wunderground v.1.15,2013-03-02 05:00:00,
2013-03-02 00:05:00,26.5,21.7,29.91,NNW,342,1.0,2.0,82,0.00,,,0.00,Wunderground v.1.15,2013-03-02 05:05:00,
2013-03-02 00:10:00,26.5,21.7,29.91,NNW,342,1.0,1.0,82,0.00,,,0.00,Wunderground v.1.15,2013-03-02 05:10:00,
2013-03-02 00:19:00,26.5,21.7,29.91,NNW,342,0.0,5.0,82,0.00,,,0.00,Wunderground v.1.15,2013-03-02 05:19:00,
2013-03-02 00:24:00,26.5,21.7,29.91,NNW,342,0.0,5.0,82,0.00,,,0.00,Wunderground v.1.15,2013-03-02 05:24:00,
2013-03-02 00:30:00,26.4,21.7,29.91,NNW,342,0.0,5.0,82,0.00,,,0.00,Wunderground v.1.15,2013-03-02 05:30:00,
2013-03-02 00:35:00,26.4,21.9,29.91,NNW,342,0.0,5.0,83,0.00,,,0.00,Wunderground v.1.15,2013-03-02 05:35:00,
2013-03-02 00:40:00,26.4,21.9,29.91,NNW,342,0.0,5.0,83,0.00,,,0.00,Wunderground v.1.15,2013-03-02 05:40:00,
2013-03-02 00:45:00,26.4,21.9,29.91,NNW,342,0.0,5.0,83,0.00,,,0.00,Wunderground v.1.15,2013-03-02 05:45:00,
2013-03-02 00:50:00,26.3,21.8,29.91,NNW,342,0.0,5.0,83,0.00,,,0.00,Wunderground v.1.15,2013-03-02 05:50:00,
2013-03-02 00:59:00,26.3,21.8,29.91,NNW,342,0.0,5.0,83,0.00,,,0.00,Wunderground v.1.15,2013-03-02 05:59:00,
2013-03-02 01:04:00,26.2,22.0,29.91,NNW,340,1.0,5.0,84,0.00,,,0.00,Wunderground v.1.15,2013-03-02 06:04:00,
2013-03-02 01:09:00,26.1,21.9,29.91,NNW,336,1.0,1.0,84,0.00,,,0.00,Wunderground v.1.15,2013-03-02 06:09:00,
2013-03-02 08:59:00,21.8,18.3,29.93,WSW,258,1.0,4.0,86,0.00,,,0.00,Wunderground v.1.15,2013-03-02 13:59:00,
2013-03-02 09:04:00,21.8,18.3,29.93,WSW,258,1.0,4.0,86,0.00,,,0.00,Wunderground v.1.15,2013-03-02 14:04:00,
2013-03-02 09:09:00,22.0,18.5,29.93,WNW,301,2.0,2.0,86,0.00,,,0.00,Wunderground v.1.15,2013-03-02 14:09:00,
2013-03-02 09:15:00,22.2,18.7,29.93,West,276,1.0,2.0,86,0.00,,,0.00,Wunderground v.1.15,2013-03-02 14:15:00,
2013-03-02 09:20:00,22.3,18.7,29.93,SW,231,1.0,1.0,86,0.00,,,0.00,Wunderground v.1.15,2013-03-02 14:20:00,
2013-03-02 09:25:00,22.3,18.7,29.93,WSW,242,2.0,2.0,86,0.00,,,0.00,Wunderground v.1.15,2013-03-02 14:25:00,
2013-03-02 09:30:00,22.5,18.9,29.92,West,261,1.0,2.0,86,0.00,,,0.00,Wunderground v.1.15,2013-03-02 14:30:00,
2013-03-02 09:39:00,22.7,18.9,29.92,WNW,284,1.0,5.0,85,0.00,,,0.00,Wunderground v.1.15,2013-03-02 14:39:00,
2013-03-02 09:44:00,22.6,18.8,29.92,WNW,292,2.0,5.0,85,0.00,,,0.00,Wunderground v.1.15,2013-03-02 14:44:00,
2013-03-02 09:49:00,22.6,18.8,29.92,WNW,294,1.0,5.0,85,0.00,,,0.00,Wunderground v.1.15,2013-03-02 14:49:00,
2013-03-02 09:55:00,22.6,18.8,29.92,West,277,1.0,5.0,85,0.00,,,0.00,Wunderground v.1.15,2013-03-02 14:55:00,
2013-03-02 10:00:00,22.7,18.6,29.92,West,281,1.0,1.0,84,0.00,,,0.00,Wunderground v.1.15,2013-03-02 15:00:00,
2013-03-02 10:05:00,22.8,18.7,29.92,West,269,2.0,3.0,84,0.00,,,0.00,Wunderground v.1.15,2013-03-02 15:05:00,
2013-03-02 10:10:00,22.9,18.8,29.92,West,267,2.0,5.0,84,0.00,,,0.00,Wunderground v.1.15,2013-03-02 15:10:00,
2013-03-02 10:19:00,22.9,18.5,29.92,West,279,2.0,5.0,83,0.00,,,0.00,Wunderground v.1.15,2013-03-02 15:19:00,
2013-03-02 10:24:00,23.1,18.7,29.92,WNW,290,2.0,5.0,83,0.00,,,0.00,Wunderground v.1.15,2013-03-02 15:24:00,
2013-03-02 10:29:00,23.3,18.9,29.92,WSW,255,2.0,5.0,83,0.00,,,0.00,Wunderground v.1.15,2013-03-02 15:29:00,
2013-03-02 10:35:00,23.5,19.1,29.92,West,270,2.0,5.0,83,0.00,,,0.00,Wunderground v.1.15,2013-03-02 15:35:00,
2013-03-02 10:40:00,23.8,19.4,29.92,NW,311,1.0,1.0,83,0.00,,,0.00,Wunderground v.1.15,2013-03-02 15:40:00,
2013-03-02 10:45:00,23.9,19.2,29.92,NW,312,1.0,2.0,82,0.00,,,0.00,Wunderground v.1.15,2013-03-02 15:45:00,
2013-03-02 10:50:00,24.1,19.4,29.92,NNW,340,2.0,2.0,82,0.00,,,0.00,Wunderground v.1.15,2013-03-02 15:50:00,
2013-03-02 10:55:00,24.3,19.3,29.91,WNW,287,2.0,5.0,81,0.00,,,0.00,Wunderground v.1.15,2013-03-02 15:55:00,
2013-03-02 11:04:00,24.8,19.5,29.91,NW,307,2.0,5.0,80,0.00,,,0.00,Wunderground v.1.15,2013-03-02 16:04:00,
2013-03-02 11:09:00,24.7,19.1,29.91,NW,325,2.0,2.0,79,0.00,,,0.00,Wunderground v.1.15,2013-03-02 16:09:00,
2013-03-02 11:15:00,24.7,19.1,29.91,West,273,2.0,5.0,79,0.00,,,0.00,Wunderground v.1.15,2013-03-02 16:15:00,
2013-03-02 11:20:00,24.7,19.1,29.92,WNW,300,1.0,5.0,79,0.00,,,0.00,Wunderground v.1.15,2013-03-02 16:20:00,
2013-03-02 11:25:00,24.6,19.0,29.92,NW,308,2.0,5.0,79,0.00,,,0.00,Wunderground v.1.15,2013-03-02 16:25:00,
2013-03-02 11:30:00,24.2,18.3,29.91,WNW,296,2.0,7.0,78,0.00,,,0.00,Wunderground v.1.15,2013-03-02 16:30:00,
2013-03-02 11:35:00,24.0,18.1,29.91,WNW,300,2.0,7.0,78,0.00,,,0.00,Wunderground v.1.15,2013-03-02 16:35:00,
2013-03-02 11:44:00,24.4,18.5,29.92,NW,306,2.0,5.0,78,0.00,,,0.00,Wunderground v.1.15,2013-03-02 16:44:00,
2013-03-02 11:49:00,24.5,18.3,29.92,WNW,299,2.0,5.0,77,0.00,,,0.00,Wunderground v.1.15,2013-03-02 16:49:00,
2013-03-02 11:55:00,24.4,18.5,29.92,WSW,246,2.0,5.0,78,0.00,,,0.00,Wunderground v.1.15,2013-03-02 16:55:00,
2013-03-02 12:00:00,24.3,18.7,29.92,West,259,2.0,5.0,79,0.00,,,0.00,Wunderground v.1.15,2013-03-02 17:00:00,
2013-03-02 12:05:00,24.2,18.6,29.92,WNW,300,2.0,5.0,79,0.00,,,0.00,Wunderground v.1.15,2013-03-02 17:05:00,
2013-03-02 12:10:00,24.1,18.8,29.92,NW,311,2.0,2.0,80,0.00,,,0.00,Wunderground v.1.15,2013-03-02 17:10:00,
2013-03-02 12:15:00,24.0,18.4,29.92,NW,306,2.0,5.0,79,0.00,,,0.00,Wunderground v.1.15,2013-03-02 17:15:00,
2013-03-02 12:24:00,24.0,18.7,29.91,WNW,298,2.0,5.0,80,0.00,,,0.00,Wunderground v.1.15,2013-03-02 17:24:00,
2013-03-02 12:30:00,24.0,18.4,29.91,WNW,284,1.0,5.0,79,0.00,,,0.00,Wunderground v.1.15,2013-03-02 17:30:00,
2013-03-02 12:35:00,24.1,18.5,29.91,NW,304,1.0,5.0,79,0.00,,,0.00,Wunderground v.1.15,2013-03-02 17:35:00,
2013-03-02 12:40:00,24.1,18.2,29.91,NW,310,2.0,5.0,78,0.00,,,0.00,Wunderground v.1.15,2013-03-02 17:40:00,
2013-03-02 12:45:00,24.0,18.1,29.90,WSW,240,2.0,5.0,78,0.00,,,0.00,Wunderground v.1.15,2013-03-02 17:45:00,
2013-03-02 12:50:00,23.7,17.8,29.90,WSW,253,2.0,2.0,78,0.00,,,0.00,Wunderground v.1.15,2013-03-02 17:50:00,
2013-03-02 12:59:00,23.9,18.3,29.90,WNW,296,1.0,1.0,79,0.00,,,0.00,Wunderground v.1.15,2013-03-02 17:59:00,
2013-03-02 13:04:00,23.8,17.9,29.90,WNW,303,2.0,2.0,78,0.00,,,0.00,Wunderground v.1.15,2013-03-02 18:04:00,
2013-03-02 13:10:00,23.6,18.0,29.90,WNW,288,2.0,2.0,79,0.00,,,0.00,Wunderground v.1.15,2013-03-02 18:10:00,
2013-03-02 13:15:00,23.7,18.1,29.89,WNW,289,2.0,5.0,79,0.00,,,0.00,Wunderground v.1.15,2013-03-02 18:15:00,
2013-03-02 13:20:00,23.8,18.2,29.89,West,279,1.0,1.0,79,0.00,,,0.00,Wunderground v.1.15,2013-03-02 18:20:00,
2013-03-02 13:25:00,23.8,18.2,29.89,WNW,290,2.0,3.0,79,0.00,,,0.00,Wunderground v.1.15,2013-03-02 18:25:00,
2013-03-02 13:30:00,23.8,18.2,29.89,NNW,331,2.0,5.0,79,0.00,,,0.00,Wunderground v.1.15,2013-03-02 18:30:00,
2013-03-02 13:39:00,23.7,18.1,29.89,West,281,3.0,3.0,79,0.00,,,0.00,Wunderground v.1.15,2013-03-02 18:39:00,
2013-03-02 13:44:00,23.6,18.3,29.89,WSW,252,2.0,5.0,80,0.00,,,0.00,Wunderground v.1.15,2013-03-02 18:44:00,
2013-03-02 13:49:00,23.7,18.4,29.89,WNW,288,2.0,2.0,80,0.00,,,0.00,Wunderground v.1.15,2013-03-02 18:49:00,
2013-03-02 13:55:00,23.9,18.6,29.89,NW,322,2.0,5.0,80,0.00,,,0.00,Wunderground v.1.15,2013-03-02 18:55:00,
2013-03-02 14:00:00,23.9,18.6,29.89,WSW,253,2.0,5.0,80,0.00,,,0.00,Wunderground v.1.15,2013-03-02 19:00:00,
2013-03-02 14:05:00,23.9,18.3,29.89,WNW,288,3.0,5.0,79,0.00,,,0.00,Wunderground v.1.15,2013-03-02 19:05:00,
2013-03-02 14:10:00,24.0,18.4,29.88,WNW,288,2.0,5.0,79,0.00,,,0.00,Wunderground v.1.15,2013-03-02 19:10:00,
2013-03-02 14:25:00,24.1,18.5,29.88,WSW,244,3.0,6.0,79,0.00,,,0.00,Wunderground v.1.15,2013-03-02 19:25:00,
2013-03-02 14:35:00,24.2,18.6,29.88,West,271,2.0,5.0,79,0.00,,,0.00,Wunderground v.1.15,2013-03-02 19:35:00,
2013-03-02 14:40:00,24.4,18.8,29.88,West,273,2.0,5.0,79,0.00,,,0.00,Wunderground v.1.15,2013-03-02 19:40:00,
2013-03-02 14:49:00,24.3,18.4,29.88,WNW,294,3.0,6.0,78,0.00,,,0.00,Wunderground v.1.15,2013-03-02 19:49:00,
2013-03-02 14:54:00,24.2,18.6,29.88,WNW,283,2.0,2.0,79,0.00,,,0.00,Wunderground v.1.15,2013-03-02 19:54:00,
2013-03-02 15:00:00,24.2,18.6,29.88,West,267,2.0,5.0,79,0.00,,,0.00,Wunderground v.1.15,2013-03-02 20:00:00,
2013-03-02 15:05:00,24.0,18.4,29.88,WNW,291,2.0,5.0,79,0.00,,,0.00,Wunderground v.1.15,2013-03-02 20:05:00,
2013-03-02 15:10:00,24.0,18.4,29.88,WNW,297,2.0,6.0,79,0.00,,,0.00,Wunderground v.1.15,2013-03-02 20:10:00,
2013-03-02 15:15:00,23.9,18.6,29.88,WSW,252,2.0,6.0,80,0.00,,,0.00,Wunderground v.1.15,2013-03-02 20:15:00,
2013-03-02 15:20:00,24.0,18.7,29.88,NW,324,2.0,2.0,80,0.00,,,0.00,Wunderground v.1.15,2013-03-02 20:20:00,
2013-03-02 15:35:00,24.1,18.8,29.88,WNW,284,2.0,5.0,80,0.00,,,0.00,Wunderground v.1.15,2013-03-02 20:35:00,
2013-03-02 15:40:00,24.0,18.7,29.88,WNW,301,2.0,5.0,80,0.00,,,0.00,Wunderground v.1.15,2013-03-02 20:40:00,
2013-03-02 15:45:00,23.9,18.9,29.88,WNW,283,2.0,2.0,81,0.00,,,0.00,Wunderground v.1.15,2013-03-02 20:45:00,
2013-03-02 15:50:00,23.9,18.9,29.88,WSW,256,2.0,5.0,81,0.00,,,0.00,Wunderground v.1.15,2013-03-02 20:50:00,
2013-03-02 15:55:00,23.9,18.9,29.88,West,273,2.0,5.0,81,0.00,,,0.00,Wunderground v.1.15,2013-03-02 20:55:00,
2013-03-02 16:05:00,23.9,18.9,29.88,West,278,2.0,5.0,81,0.00,,,0.00,Wunderground v.1.15,2013-03-02 21:05:00,
2013-03-02 16:10:00,23.9,18.9,29.88,West,263,1.0,5.0,81,0.00,,,0.00,Wunderground v.1.15,2013-03-02 21:10:00,
2013-03-02 16:15:00,23.9,18.9,29.88,WSW,252,1.0,5.0,81,0.00,,,0.00,Wunderground v.1.15,2013-03-02 21:15:00,
2013-03-02 16:24:00,23.9,18.9,29.88,WNW,296,2.0,5.0,81,0.00,,,0.00,Wunderground v.1.15,2013-03-02 21:24:00,
2013-03-02 16:29:00,23.9,18.9,29.88,West,266,2.0,2.0,81,0.00,,,0.00,Wunderground v.1.15,2013-03-02 21:29:00,
2013-03-02 16:35:00,23.9,18.9,29.88,WNW,288,1.0,5.0,81,0.00,,,0.00,Wunderground v.1.15,2013-03-02 21:35:00,
2013-03-02 16:40:00,24.0,19.3,29.88,WNW,290,1.0,5.0,82,0.00,,,0.00,Wunderground v.1.15,2013-03-02 21:40:00,
2013-03-02 16:45:00,24.2,19.5,29.88,NW,304,1.0,5.0,82,0.00,,,0.00,Wunderground v.1.15,2013-03-02 21:45:00,
2013-03-02 16:54:00,24.2,19.5,29.88,NW,304,1.0,5.0,82,0.00,,,0.00,Wunderground v.1.15,2013-03-02 21:54:00,
2013-03-02 16:59:00,24.3,19.6,29.87,NW,306,1.0,1.0,82,0.00,,,0.00,Wunderground v.1.15,2013-03-02 21:59:00,
2013-03-02 17:05:00,24.3,19.6,29.87,WNW,291,1.0,4.0,82,0.00,,,0.00,Wunderground v.1.15,2013-03-02 22:05:00,
2013-03-02 17:10:00,24.3,19.3,29.88,NW,306,2.0,5.0,81,0.00,,,0.00,Wunderground v.1.15,2013-03-02 22:10:00,
2013-03-02 17:15:00,24.3,19.6,29.88,WNW,290,2.0,5.0,82,0.00,,,0.00,Wunderground v.1.15,2013-03-02 22:15:00,
2013-03-02 17:20:00,24.2,19.5,29.88,West,271,2.0,5.0,82,0.00,,,0.00,Wunderground v.1.15,2013-03-02 22:20:00,
2013-03-02 17:29:00,24.2,19.5,29.88,West,271,1.0,1.0,82,0.00,,,0.00,Wunderground v.1.15,2013-03-02 22:29:00,
2013-03-02 17:34:00,24.1,19.4,29.88,West,278,2.0,3.0,82,0.00,,,0.00,Wunderground v.1.15,2013-03-02 22:34:00,
2013-03-02 17:40:00,24.1,19.4,29.88,WNW,288,2.0,5.0,82,0.00,,,0.00,Wunderground v.1.15,2013-03-02 22:40:00,
2013-03-02 17:45:00,24.0,19.3,29.88,WSW,251,2.0,5.0,82,0.00,,,0.00,Wunderground v.1.15,2013-03-02 22:45:00,
2013-03-02 17:50:00,23.9,19.2,29.88,West,272,2.0,2.0,82,0.00,,,0.00,Wunderground v.1.15,2013-03-02 22:50:00,
2013-03-02 17:55:00,23.9,19.2,29.88,West,263,1.0,5.0,82,0.00,,,0.00,Wunderground v.1.15,2013-03-02 22:55:00,
2013-03-02 18:05:00,23.8,19.4,29.88,West,270,1.0,5.0,83,0.00,,,0.00,Wunderground v.1.15,2013-03-02 23:05:00,
2013-03-02 18:10:00,23.8,19.4,29.88,West,275,1.0,1.0,83,0.00,,,0.00,Wunderground v.1.15,2013-03-02 23:10:00,
2013-03-02 18:15:00,23.7,19.3,29.89,WNW,284,1.0,4.0,83,0.00,,,0.00,Wunderground v.1.15,2013-03-02 23:15:00,
2013-03-02 18:20:00,23.6,19.2,29.89,West,270,1.0,1.0,83,0.00,,,0.00,Wunderground v.1.15,2013-03-02 23:20:00,
2013-03-02 18:29:00,23.5,19.4,29.89,West,270,1.0,1.0,84,0.00,,,0.00,Wunderground v.1.15,2013-03-02 23:29:00,
2013-03-02 18:35:00,23.5,19.4,29.88,West,261,1.0,5.0,84,0.00,,,0.00,Wunderground v.1.15,2013-03-02 23:35:00,
2013-03-02 18:40:00,23.5,19.4,29.88,West,264,1.0,1.0,84,0.00,,,0.00,Wunderground v.1.15,2013-03-02 23:40:00,
2013-03-02 18:45:00,23.5,19.4,29.88,West,265,1.0,5.0,84,0.00,,,0.00,Wunderground v.1.15,2013-03-02 23:45:00,
2013-03-02 18:50:00,23.5,19.4,29.89,West,266,1.0,5.0,84,0.00,,,0.00,Wunderground v.1.15,2013-03-02 23:50:00,
2013-03-02 18:55:00,23.5,19.4,29.88,West,265,1.0,5.0,84,0.00,,,0.00,Wunderground v.1.15,2013-03-02 23:55:00,
2013-03-02 19:00:00,23.4,19.6,29.89,WSW,251,1.0,1.0,85,0.00,,,0.00,Wunderground v.1.15,2013-03-03 00:00:00,
2013-03-02 19:09:00,23.5,19.7,29.88,West,267,1.0,5.0,85,0.00,,,0.00,Wunderground v.1.15,2013-03-03 00:09:00,
2013-03-02 19:15:00,23.5,19.7,29.89,West,270,1.0,5.0,85,0.00,,,0.00,Wunderground v.1.15,2013-03-03 00:15:00,
2013-03-02 19:19:00,23.5,19.7,29.89,West,273,1.0,1.0,85,0.00,,,0.00,Wunderground v.1.15,2013-03-03 00:19:00,
2013-03-02 19:25:00,23.5,19.7,29.89,West,275,1.0,5.0,85,0.00,,,0.00,Wunderground v.1.15,2013-03-03 00:25:00,
2013-03-02 19:30:00,23.5,19.7,29.89,West,265,1.0,1.0,85,0.00,,,0.00,Wunderground v.1.15,2013-03-03 00:30:00,
2013-03-02 19:35:00,23.5,19.7,29.88,West,267,1.0,5.0,85,0.00,,,0.00,Wunderground v.1.15,2013-03-03 00:35:00,
2013-03-02 19:40:00,23.5,19.7,29.88,West,278,1.0,1.0,85,0.00,,,0.00,Wunderground v.1.15,2013-03-03 00:40:00,
2013-03-02 19:49:00,23.5,19.7,29.88,WSW,257,1.0,1.0,85,0.00,,,0.00,Wunderground v.1.15,2013-03-03 00:49:00,
2013-03-02 19:54:00,23.6,19.8,29.88,WSW,258,1.0,5.0,85,0.00,,,0.00,Wunderground v.1.15,2013-03-03 00:54:00,
2013-03-02 20:00:00,23.5,19.7,29.88,WSW,258,0.0,5.0,85,0.00,,,0.00,Wunderground v.1.15,2013-03-03 01:00:00,
2013-03-02 20:05:00,23.5,19.7,29.88,WNW,301,1.0,5.0,85,0.00,,,0.00,Wunderground v.1.15,2013-03-03 01:05:00,
2013-03-02 20:10:00,23.5,19.7,29.88,WNW,299,1.0,1.0,85,0.00,,,0.00,Wunderground v.1.15,2013-03-03 01:10:00,
2013-03-02 20:15:00,23.5,19.7,29.88,West,262,1.0,5.0,85,0.00,,,0.00,Wunderground v.1.15,2013-03-03 01:15:00,
2013-03-02 20:24:00,23.5,19.7,29.88,West,261,1.0,5.0,85,0.00,,,0.00,Wunderground v.1.15,2013-03-03 01:24:00,
2013-03-02 20:29:00,23.6,19.8,29.88,West,261,0.0,5.0,85,0.00,,,0.00,Wunderground v.1.15,2013-03-03 01:29:00,
2013-03-02 20:34:00,23.6,19.8,29.88,West,267,1.0,5.0,85,0.00,,,0.00,Wunderground v.1.15,2013-03-03 01:34:00,
2013-03-02 20:40:00,23.6,19.8,29.88,West,261,1.0,1.0,85,0.00,,,0.00,Wunderground v.1.15,2013-03-03 01:40:00,
2013-03-02 20:45:00,23.6,19.8,29.88,WSW,257,1.0,5.0,85,0.00,,,0.00,Wunderground v.1.15,2013-03-03 01:45:00,
2013-03-02 20:50:00,23.6,19.8,29.89,West,259,1.0,1.0,85,0.00,,,0.00,Wunderground v.1.15,2013-03-03 01:50:00,
2013-03-02 20:55:00,23.6,20.0,29.88,West,259,0.0,5.0,86,0.00,,,0.00,Wunderground v.1.15,2013-03-03 01:55:00,
2013-03-02 21:04:00,23.6,20.0,29.88,West,259,1.0,5.0,86,0.00,,,0.00,Wunderground v.1.15,2013-03-03 02:04:00,
2013-03-02 21:09:00,23.5,19.9,29.88,West,259,0.0,5.0,86,0.00,,,0.00,Wunderground v.1.15,2013-03-03 02:09:00,
2013-03-02 21:14:00,23.5,19.9,29.88,West,259,0.0,5.0,86,0.00,,,0.00,Wunderground v.1.15,2013-03-03 02:14:00,
2013-03-02 21:20:00,23.5,19.9,29.88,West,260,0.0,5.0,86,0.00,,,0.00,Wunderground v.1.15,2013-03-03 02:20:00,
2013-03-02 21:25:00,23.5,19.9,29.88,WSW,257,0.0,5.0,86,0.00,,,0.00,Wunderground v.1.15,2013-03-03 02:25:00,
2013-03-02 21:30:00,23.4,19.8,29.88,WSW,257,0.0,5.0,86,0.00,,,0.00,Wunderground v.1.15,2013-03-03 02:30:00,
2013-03-02 21:39:00,23.4,19.8,29.88,WSW,257,0.0,5.0,86,0.00,,,0.00,Wunderground v.1.15,2013-03-03 02:39:00,
2013-03-02 21:44:00,23.4,20.1,29.88,WSW,257,0.0,5.0,87,0.00,,,0.00,Wunderground v.1.15,2013-03-03 02:44:00,
2013-03-02 21:50:00,23.3,20.0,29.87,WSW,257,0.0,5.0,87,0.00,,,0.00,Wunderground v.1.15,2013-03-03 02:50:00,
2013-03-02 21:55:00,23.4,20.1,29.87,West,271,0.0,5.0,87,0.00,,,0.00,Wunderground v.1.15,2013-03-03 02:55:00,
2013-03-02 22:00:00,23.4,20.1,29.87,West,271,0.0,5.0,87,0.00,,,0.00,Wunderground v.1.15,2013-03-03 03:00:00,
2013-03-02 22:05:00,23.5,20.2,29.87,West,271,0.0,5.0,87,0.00,,,0.00,Wunderground v.1.15,2013-03-03 03:05:00,
2013-03-02 22:10:00,23.6,20.3,29.87,West,273,0.0,5.0,87,0.00,,,0.00,Wunderground v.1.15,2013-03-03 03:10:00,
2013-03-02 22:15:00,23.7,20.4,29.88,West,274,0.0,5.0,87,0.00,,,0.00,Wunderground v.1.15,2013-03-03 03:15:00,
2013-03-02 22:24:00,23.8,20.5,29.88,WNW,302,1.0,5.0,87,0.00,,,0.00,Wunderground v.1.15,2013-03-03 03:24:00,
2013-03-02 22:29:00,23.9,20.6,29.87,NW,304,1.0,1.0,87,0.00,,,0.00,Wunderground v.1.15,2013-03-03 03:29:00,
2013-03-02 22:35:00,23.9,20.3,29.87,NW,304,1.0,5.0,86,0.00,,,0.00,Wunderground v.1.15,2013-03-03 03:35:00,
2013-03-02 22:40:00,23.9,20.3,29.87,NW,304,0.0,5.0,86,0.00,,,0.00,Wunderground v.1.15,2013-03-03 03:40:00,
2013-03-02 22:45:00,23.9,20.3,29.87,NW,304,0.0,5.0,86,0.00,,,0.00,Wunderground v.1.15,2013-03-03 03:45:00,
2013-03-02 22:50:00,23.9,20.3,29.87,NW,304,0.0,5.0,86,0.00,,,0.00,Wunderground v.1.15,2013-03-03 03:50:00,
2013-03-02 22:55:00,23.9,20.3,29.87,NW,304,0.0,5.0,86,0.00,,,0.00,Wunderground v.1.15,2013-03-03 03:55:00,
2013-03-02 23:00:00,23.9,20.3,29.87,NW,304,0.0,5.0,86,0.00,,,0.00,Wunderground v.1.15,2013-03-03 04:00:00,
2013-03-02 23:09:00,23.8,20.5,29.87,NW,304,0.0,5.0,87,0.00,,,0.00,Wunderground v.1.15,2013-03-03 04:09:00,
2013-03-02 23:15:00,23.8,20.5,29.87,NW,304,0.0,5.0,87,0.00,,,0.00,Wunderground v.1.15,2013-03-03 04:15:00,
2013-03-02 23:20:00,23.8,20.5,29.87,NW,304,0.0,5.0,87,0.00,,,0.00,Wunderground v.1.15,2013-03-03 04:20:00,
2013-03-02 23:30:00,23.8,20.5,29.87,NW,304,0.0,5.0,87,0.00,,,0.00,Wunderground v.1.15,2013-03-03 04:30:00,
2013-03-02 23:35:00,23.8,20.5,29.86,NW,304,0.0,5.0,87,0.00,,,0.00,Wunderground v.1.15,2013-03-03 04:35:00,
2013-03-02 23:40:00,23.7,20.4,29.86,NW,304,0.0,5.0,87,0.00,,,0.00,Wunderground v.1.15,2013-03-03 04:40:00,
2013-03-02 23:49:00,23.7,20.4,29.86,NW,304,0.0,5.0,87,0.00,,,0.00,Wunderground v.1.15,2013-03-03 04:49:00,
2013-03-02 23:55:00,23.6,20.3,29.86,NW,304,0.0,5.0,87,0.00,,,0.00,Wunderground v.1.15,2013-03-03 04:55:00,